1514880000.87,64123,6.13,72370.5,-8.23,-20.63,-20.15,0,*5A
1514880002.11,64124,6.13,72370.3,-8.23,-20.63,-20.05,0,*5C
1514880003.37,64125,6.13,72368.3,-8.23,-20.63,-20.15,0,*5C
1514880004.6,64126,6.13,72368.0,-8.23,-20.63,-20.05,0,*5E
1514880005.87,64127,6.13,72368.3,-8.23,-20.63,-20.19,0,*52
1514880007.1,64128,6.19,72374.8,-8.23,-20.63,-20.05,0,*50
1514880008.36,64129,6.13,72372.0,-8.23,-20.63,-20.15,0,*50
1514880009.62,64130,6.13,72370.8,-8.23,-20.63,-20.15,0,*58
1514880010.87,64131,6.13,72370.5,-8.23,-20.69,-20.15,0,*53
1514880012.11,64132,6.13,72368.5,-8.23,-20.69,-19.99,0,*5E
1514880013.34,64133,6.13,72366.8,-8.23,-20.69,-19.99,0,*5F
1514880014.57,64134,6.13,72372.5,-8.23,-20.69,-20.05,0,*57
1514880015.83,64135,6.13,72368.0,-8.23,-20.69,-20.15,0,*57
1514880017.06,64136,6.13,72370.5,-8.23,-20.69,-19.99,0,*5A
1514880018.3,64137,6.13,72370.8,-8.21,-20.79,-20.05,0,*57
1514880019.53,64138,6.13,72370.3,-8.23,-20.69,-20.05,0,*5B
1514880020.79,64139,6.13,72368.0,-8.23,-20.79,-20.05,0,*5B
1514880022.02,64140,6.13,72370.3,-8.21,-20.69,-20.15,0,*57
1514880023.26,64141,6.13,72368.5,-8.21,-20.79,-20.05,0,*56
1514880024.53,64142,6.13,72370.8,-8.23,-20.79,-20.15,0,*56
1514880025.82,64143,6.13,72370.5,-8.23,-20.83,-20.15,0,*52
1514880027.07,64144,6.13,72372.0,-8.21,-20.79,-20.15,0,*52
1514880028.3,64145,6.13,72368.5,-8.21,-20.93,-20.15,0,*57
1514880029.51,64146,6.13,72370.5,-8.21,-20.93,-20.05,0,*55
1514880030.75,64147,6.13,72368.0,-8.21,-20.79,-20.05,0,*50
1514880031.99,64148,6.13,72370.3,-8.21,-20.83,-20.05,0,*5A
1514880033.22,64149,6.19,72374.8,-8.23,-20.93,-20.05,0,*58
1514880034.48,64150,6.13,72370.0,-8.21,-20.83,-20.15,0,*52
1514880035.72,64151,6.13,72370.8,-8.23,-20.93,-20.05,0,*51
1514880036.95,64152,6.13,72370.3,-8.21,-20.93,-20.15,0,*51
1514880038.21,64153,6.13,72372.3,-8.21,-20.99,-20.15,0,*5A
1514880039.47,64154,6.13,72374.5,-8.21,-20.99,-20.15,0,*5D
1514880040.73,64155,6.13,72368.3,-8.21,-20.99,-20.19,0,*50
1514880042.0,64156,6.13,72370.0,-8.21,-20.99,-20.19,0,*53
1514880043.26,64157,6.13,72368.0,-8.21,-20.99,-20.19,0,*52
1514880044.54,64158,6.19,72372.3,-8.19,-21.03,-20.15,0,*58
1514880045.82,64159,6.19,72374.0,-8.19,-21.03,-20.15,0,*59
1514880047.08,64160,6.13,72370.3,-8.19,-21.17,-20.19,0,*5A
1514880048.34,64161,6.19,72372.8,-8.19,-21.09,-20.19,0,*54
1514880049.6,64162,6.13,72372.0,-8.19,-21.09,-20.19,0,*57
1514880050.85,64163,6.13,72374.3,-8.19,-21.09,-20.19,0,*56
1514880052.13,64164,6.13,72370.3,-8.19,-21.03,-20.15,0,*57
1514880053.41,64165,6.13,72370.3,-8.19,-21.03,-20.15,0,*56
1514880054.68,64166,6.13,72372.0,-8.19,-21.17,-20.19,0,*5C
1514880055.93,64167,6.13,72370.0,-8.19,-21.09,-20.15,0,*5E
1514880057.16,64168,6.13,72372.5,-8.17,-21.17,-20.19,0,*5C
1514880058.42,64169,6.19,72372.0,-8.19,-21.17,-20.15,0,*5F
1514880059.65,64170,6.13,72372.3,-8.19,-21.17,-20.29,0,*58
1514880060.89,64171,6.13,72370.5,-8.19,-21.17,-20.29,0,*59
1514880062.12,64172,6.13,72372.0,-8.19,-21.17,-20.29,0,*5A
1514880063.38,64173,6.13,72372.0,-8.19,-21.09,-20.19,0,*57
1514880064.64,64174,6.13,72368.8,-8.19,-21.17,-20.19,0,*5F
1514880065.88,64175,6.19,72372.5,-8.17,-21.17,-20.19,0,*50
1514880067.13,64176,6.19,72372.5,-8.19,-21.09,-20.19,0,*52
1514880068.38,64177,6.13,72372.0,-8.19,-21.09,-20.15,0,*5F
1514880069.67,64178,6.13,72372.3,-8.15,-21.03,-20.15,0,*56
1514880070.92,64179,6.13,72372.8,-8.19,-21.17,-20.15,0,*5E
1514880072.19,64180,6.13,72374.0,-8.19,-21.17,-20.19,0,*54
1514880073.42,64181,6.19,72372.0,-8.19,-21.17,-20.29,0,*56
1514880074.68,64182,6.13,72374.3,-8.17,-21.23,-20.35,0,*51
1514880075.94,64183,6.13,72370.8,-8.19,-21.23,-20.29,0,*53
1514880077.2,64184,6.13,72370.8,-8.19,-21.27,-20.29,0,*50
1514880078.46,64185,6.13,72374.3,-8.19,-21.23,-20.29,0,*55
1514880079.75,64186,6.13,72374.5,-8.19,-21.23,-20.19,0,*55
1514880081.02,64187,6.13,72370.3,-8.17,-21.23,-20.19,0,*5A
1514880082.3,64188,6.19,72374.8,-8.19,-21.23,-20.19,0,*5B
1514880083.58,64189,6.13,72372.0,-8.19,-21.23,-20.15,0,*56
1514880084.87,64190,6.13,72370.5,-8.19,-21.23,-20.19,0,*52
1514880086.16,64191,6.13,72368.8,-8.19,-21.27,-20.19,0,*57
1514880087.42,64192,6.13,72374.0,-8.19,-21.23,-20.29,0,*53
1514880088.68,64193,6.13,72370.0,-8.17,-21.27,-20.19,0,*5B
1514880089.94,64194,6.13,72370.3,-8.17,-21.23,-20.35,0,*56
1514880091.18,64195,6.13,72368.5,-8.17,-21.27,-20.29,0,*5E
1514880092.41,64196,6.13,72372.0,-8.17,-21.27,-20.29,0,*5D
1514880093.65,64197,6.19,72372.3,-8.19,-21.43,-20.43,0,*5C
1514880094.86,64198,6.13,72368.0,-8.17,-21.39,-20.29,0,*5C
1514880096.12,64199,6.19,72374.5,-8.17,-21.27,-20.35,0,*5F
1514880097.38,64200,6.13,72368.8,-8.17,-21.27,-20.35,0,*5C
1514880098.61,64201,6.13,72370.8,-8.17,-21.27,-20.29,0,*50
1514880099.85,64202,6.13,72372.0,-8.17,-21.23,-20.29,0,*57
1514880101.09,64203,6.19,72374.5,-8.17,-21.23,-20.29,0,*56
1514880102.32,64204,6.13,72370.3,-8.17,-21.27,-20.29,0,*55
1514880103.56,64205,6.13,72374.3,-8.17,-21.27,-20.29,0,*54
1514880104.82,64206,6.13,72372.3,-8.17,-21.27,-20.35,0,*5A
1514880106.06,64207,6.13,72372.3,-8.19,-21.39,-20.43,0,*5B
1514880107.29,64208,6.13,72370.0,-8.17,-21.39,-20.35,0,*5B
1514880108.52,64209,6.13,72372.3,-8.17,-21.39,-20.35,0,*5A
1514880109.75,64210,6.13,72370.8,-8.17,-21.43,-20.35,0,*5F
1514880110.98,64211,6.13,72372.3,-8.17,-21.43,-20.35,0,*5E
1514880112.2,64212,6.13,72372.3,-8.17,-21.43,-20.43,0,*5C
1514880113.41,64213,6.13,72372.5,-8.17,-21.43,-20.43,0,*5D
1514880114.64,64214,6.13,72372.0,-8.17,-21.43,-20.49,0,*50
1514880115.91,64215,6.13,72372.0,-8.17,-21.57,-20.49,0,*54
1514880117.19,64216,6.13,72374.0,-8.15,-21.53,-20.43,0,*5B
1514880118.43,64217,6.19,72374.5,-8.15,-21.47,-20.39,0,*52
1514880119.7,64218,6.19,72374.3,-8.19,-21.53,-20.43,0,*59
1514880120.95,64219,6.19,72376.3,-8.15,-21.47,-20.43,0,*51
1514880122.2,64220,6.13,72372.0,-8.15,-21.47,-20.43,0,*5B
1514880123.44,64221,6.13,72372.5,-8.15,-21.47,-20.43,0,*5A
1514880124.69,64222,6.13,72374.8,-8.15,-21.47,-20.39,0,*54
1514880125.96,64223,6.19,72374.3,-8.15,-21.33,-20.39,0,*56
1514880127.19,64224,6.13,72370.5,-8.17,-21.39,-20.35,0,*55
1514880128.43,64225,6.13,72374.5,-8.17,-21.43,-20.49,0,*52
1514880129.68,64226,6.13,72370.3,-8.15,-21.39,-20.39,0,*59
1514880130.92,64227,6.13,72372.3,-8.17,-21.53,-20.43,0,*5B
1514880132.17,64228,6.13,72374.0,-8.15,-21.47,-20.43,0,*53
1514880133.41,64229,6.13,72374.5,-8.15,-21.39,-20.43,0,*5B
1514880134.65,64230,6.13,72374.5,-8.15,-21.39,-20.43,0,*53
1514880135.9,64231,6.13,72368.8,-8.15,-21.39,-20.43,0,*52
1514880137.11,64232,6.19,72376.5,-8.13,-21.47,-20.43,0,*5E
1514880138.38,64233,6.13,72374.3,-8.15,-21.47,-20.53,0,*58
1514880139.65,64234,6.19,72376.0,-8.15,-21.39,-20.53,0,*56
1514880140.9,64235,6.13,72370.5,-8.15,-21.47,-20.43,0,*5F
1514880142.13,64236,6.13,72374.0,-8.17,-21.39,-20.49,0,*5D
1514880143.4,64237,6.13,72372.0,-8.15,-21.33,-20.43,0,*5E
1514880144.67,64238,6.13,72372.8,-8.15,-21.33,-20.43,0,*51
1514880145.92,64239,6.13,72372.8,-8.15,-21.47,-20.43,0,*53
1514880147.14,64240,6.13,72374.8,-8.13,-21.47,-20.39,0,*56
1514880148.38,64241,6.13,72372.5,-8.15,-21.39,-20.39,0,*58
1514880149.62,64242,6.13,72372.3,-8.13,-21.33,-20.43,0,*5A
1514880150.92,64243,6.13,72370.5,-8.15,-21.53,-20.53,0,*5A
1514880152.19,64244,6.13,72374.5,-8.13,-21.53,-20.53,0,*5B
1514880153.49,64245,6.19,72376.3,-8.15,-21.53,-20.53,0,*5C
1514880154.76,64246,6.13,72372.3,-8.13,-21.53,-20.53,0,*59
1514880156.06,64247,6.13,72370.8,-8.15,-21.53,-20.53,0,*5E
1514880157.31,64248,6.13,72372.3,-8.15,-21.47,-20.59,0,*5E
1514880158.55,64249,6.13,72374.3,-8.13,-21.47,-20.53,0,*53
1514880159.79,64250,6.13,72372.3,-8.13,-21.53,-20.69,0,*57
1514880161.09,64251,6.13,72370.5,-8.15,-21.53,-20.53,0,*59
1514880162.34,64252,6.13,72372.3,-8.15,-21.47,-20.59,0,*55
1514880163.61,64253,6.13,72370.3,-8.15,-21.47,-20.53,0,*5E
1514880164.88,64254,6.13,72374.8,-8.15,-21.47,-20.53,0,*59
1514880166.12,64255,6.13,72370.3,-8.15,-21.47,-20.69,0,*51
1514880167.33,64256,6.19,72374.5,-8.13,-21.47,-20.59,0,*57
1514880168.6,64257,6.13,72372.3,-8.15,-21.39,-20.53,0,*53
1514880169.85,64258,6.13,72372.0,-8.15,-21.47,-20.59,0,*5F
1514880171.09,64259,6.13,72372.8,-8.13,-21.47,-20.53,0,*52
1514880172.32,64260,6.13,72372.5,-8.13,-21.39,-20.53,0,*51
1514880173.54,64261,6.19,72376.3,-8.13,-21.47,-20.59,0,*53
1514880174.78,64262,6.13,72372.0,-8.15,-21.47,-20.59,0,*56
1514880176.03,64263,6.13,72374.5,-8.11,-21.47,-20.63,0,*5A
1514880177.24,64264,6.13,72372.3,-8.13,-21.63,-20.73,0,*58
1514880178.48,64265,6.13,72372.3,-8.13,-21.67,-20.69,0,*56
1514880179.69,64266,6.13,72374.0,-8.13,-21.63,-20.73,0,*5A
1514880180.93,64267,6.13,72372.8,-8.13,-21.67,-20.73,0,*5F
1514880182.14,64268,6.13,72372.3,-8.13,-21.63,-20.69,0,*5F
1514880183.34,64269,6.13,72372.8,-8.13,-21.63,-20.69,0,*5E
1514880184.62,64270,6.13,72376.5,-8.15,-21.53,-20.69,0,*53
1514880185.83,64271,6.13,72374.8,-8.13,-21.47,-20.59,0,*52
1514880187.05,64272,6.13,72374.0,-8.13,-21.47,-20.59,0,*51
1514880188.29,64273,6.13,72372.5,-8.13,-21.47,-20.53,0,*5A
1514880189.54,64274,6.13,72374.3,-8.13,-21.53,-20.59,0,*52
1514880190.78,64275,6.13,72374.5,-8.13,-21.53,-20.69,0,*50
1514880191.99,64276,6.19,72376.5,-8.13,-21.47,-20.59,0,*55
1514880193.21,64277,6.13,72372.3,-8.13,-21.47,-20.59,0,*54
1514880194.48,64278,6.13,72374.0,-8.15,-21.53,-20.69,0,*5B
1514880195.72,64279,6.13,72372.5,-8.13,-21.47,-20.53,0,*50
1514880196.94,64280,6.19,72376.3,-8.13,-21.47,-20.59,0,*5C
1514880198.18,64281,6.13,72372.8,-8.13,-21.47,-20.53,0,*57
1514880199.47,64282,6.13,72372.0,-8.11,-21.33,-20.53,0,*55
1514880200.76,64283,6.13,72374.3,-8.11,-21.33,-20.53,0,*54
1514880202.04,64284,6.13,72372.3,-8.11,-21.33,-20.53,0,*53
1514880203.31,64285,6.19,72376.0,-8.11,-21.47,-20.53,0,*51
1514880204.55,64286,6.13,72374.5,-8.11,-21.47,-20.63,0,*51
1514880205.79,64287,6.13,72374.8,-8.11,-21.43,-20.63,0,*54
1514880207.0,64288,6.19,72378.5,-8.13,-21.63,-20.59,0,*52
1514880208.24,64289,6.13,72372.5,-8.13,-21.47,-20.53,0,*5F
1514880209.46,64290,6.13,72372.8,-8.13,-21.47,-20.59,0,*5D
1514880210.75,64291,6.19,72376.3,-8.11,-21.33,-20.49,0,*5C
1514880212.04,64292,6.13,72372.0,-8.11,-21.33,-20.35,0,*54
1514880213.32,64293,6.19,72378.0,-8.11,-21.33,-20.35,0,*55
1514880214.61,64294,6.13,72374.0,-8.11,-21.27,-20.35,0,*57
1514880215.9,64295,6.19,72374.5,-8.07,-21.27,-20.19,0,*5F
1514880217.18,64296,6.13,72370.8,-8.11,-21.27,-20.35,0,*55
1514880218.47,64297,6.19,72376.3,-8.11,-21.27,-20.35,0,*54
1514880219.76,64298,6.13,72374.0,-8.11,-21.27,-20.35,0,*5B
1514880221.05,64299,6.19,72376.8,-8.07,-21.23,-20.19,0,*57
1514880222.33,64300,6.13,72372.8,-8.11,-21.27,-20.35,0,*5B
1514880223.57,64301,6.13,72374.8,-8.05,-21.23,-20.29,0,*56
1514880224.83,64302,6.13,72372.8,-8.11,-21.17,-20.19,0,*54
1514880226.1,64303,6.13,72372.3,-8.11,-21.13,-20.19,0,*51
1514880227.32,64304,6.13,72372.5,-8.05,-21.09,-20.15,0,*54
1514880228.56,64305,6.13,72370.3,-8.11,-21.13,-20.09,0,*56
1514880229.79,64306,6.13,72370.5,-8.11,-21.13,-19.99,0,*56
1514880231.03,64307,6.13,72368.8,-8.07,-21.09,-20.05,0,*54
1514880232.27,64308,6.13,72374.0,-8.11,-21.13,-20.09,0,*5B
1514880233.5,64309,6.13,72372.8,-8.11,-20.93,-19.99,0,*50
1514880234.76,64310,6.13,72374.8,-8.11,-20.83,-19.99,0,*59
1514880236.0,64311,6.13,72374.8,-8.07,-20.89,-19.95,0,*59
1514880237.24,64312,6.13,72374.3,-8.11,-20.93,-19.91,0,*52
1514880238.5,64313,6.13,72374.3,-8.11,-20.83,-19.91,0,*52
1514880239.76,64314,6.13,72374.8,-8.07,-20.63,-19.85,0,*59
1514880241.02,64315,6.13,72372.8,-8.11,-20.69,-19.85,0,*55
1514880242.25,64316,6.13,72372.3,-8.11,-20.69,-19.75,0,*59
1514880243.51,64317,6.13,72372.5,-8.11,-20.53,-19.75,0,*51
1514880244.79,64318,6.13,72372.5,-8.07,-20.43,-19.57,0,*58
1514880246.08,64319,6.19,72374.8,-8.11,-20.49,-19.57,0,*54
1514880247.35,64320,6.13,72372.5,-8.11,-20.39,-19.57,0,*59
1514880248.63,64321,6.13,72372.5,-8.11,-20.49,-19.61,0,*5A
1514880249.92,64322,6.13,72374.3,-8.11,-20.49,-19.41,0,*5B
1514880251.2,64323,6.19,72376.5,-8.07,-20.35,-19.41,0,*56
1514880252.48,64324,6.13,72374.3,-8.11,-20.35,-19.31,0,*51
1514880253.76,64325,6.19,72374.8,-8.07,-20.19,-19.27,0,*5E
1514880255.01,64326,6.19,72374.3,-8.11,-20.25,-19.31,0,*52
1514880256.27,64327,6.13,72374.5,-8.07,-20.15,-19.13,0,*57
1514880257.52,64328,6.13,72374.0,-8.07,-20.05,-18.93,0,*50
1514880258.77,64329,6.13,72374.8,-8.07,-20.05,-18.89,0,*5A
1514880260.0,64330,6.13,72372.3,-8.05,-20.05,-18.93,0,*5B
1514880261.25,64331,6.13,72372.8,-8.07,-20.05,-18.93,0,*58
1514880262.49,64332,6.13,72372.3,-8.07,-19.95,-18.79,0,*5C
1514880263.72,64333,6.13,72372.0,-8.11,-19.99,-18.83,0,*53
1514880264.97,64334,6.13,72374.0,-8.07,-19.99,-18.89,0,*59
1514880266.21,64335,6.13,72372.5,-8.07,-19.95,-18.79,0,*5B
1514880267.46,64336,6.13,72374.5,-8.07,-19.81,-18.65,0,*50
1514880268.71,64337,6.13,72374.8,-8.07,-19.81,-18.65,0,*51
1514880269.98,64338,6.13,72374.0,-8.07,-19.81,-18.59,0,*51
1514880271.26,64339,6.19,72376.3,-8.07,-19.65,-18.59,0,*5A
1514880272.51,64340,6.13,72374.0,-8.11,-19.75,-18.55,0,*5E
1514880273.75,64341,6.13,72372.8,-8.07,-19.71,-18.49,0,*51
1514880274.99,64342,6.13,72372.3,-8.07,-19.71,-18.49,0,*52
1514880276.25,64343,6.19,72374.3,-8.07,-19.57,-18.49,0,*57
1514880277.49,64344,6.13,72374.3,-8.07,-19.51,-18.49,0,*56
1514880278.76,64345,6.13,72372.0,-8.07,-19.57,-18.49,0,*51
1514880280.02,64346,6.13,72372.3,-8.07,-19.51,-18.35,0,*5F
1514880281.28,64347,6.19,72376.0,-8.07,-19.41,-18.45,0,*58
1514880282.52,64348,6.13,72372.5,-8.05,-19.23,-18.21,0,*53
1514880283.78,64349,6.13,72374.5,-8.07,-19.23,-18.21,0,*50
1514880285.05,64350,6.13,72372.0,-8.07,-19.27,-18.17,0,*59
1514880286.3,64351,6.13,72372.8,-8.07,-19.13,-18.07,0,*5E
1514880287.54,64352,6.13,72372.5,-8.07,-19.13,-18.07,0,*5D
1514880288.79,64353,6.13,72374.8,-8.07,-19.13,-18.07,0,*5C
1514880290.07,64354,6.19,72374.0,-8.11,-19.27,-18.11,0,*5C
1514880291.34,64355,6.13,72374.5,-8.07,-19.13,-17.97,0,*5C
1514880292.6,64356,6.19,72378.8,-8.07,-19.07,-18.01,0,*5A
1514880293.87,64357,6.13,72370.5,-8.07,-19.03,-17.97,0,*5F
1514880295.11,64358,6.19,72374.3,-8.07,-19.03,-17.87,0,*51
1514880296.36,64359,6.13,72372.8,-8.11,-19.07,-17.93,0,*56
1514880297.61,64360,6.13,72372.8,-8.07,-19.07,-17.83,0,*5A
1514880298.87,64361,6.19,72376.0,-8.07,-18.93,-17.73,0,*58
1514880300.13,64362,6.13,72374.0,-8.07,-18.89,-17.69,0,*5B
1514880301.39,64363,6.19,72372.0,-8.07,-18.79,-17.55,0,*5A
1514880302.67,64364,6.19,72376.0,-8.07,-18.89,-17.59,0,*5E
1514880303.91,64365,6.13,72372.3,-8.07,-18.79,-17.73,0,*58
1514880305.17,64366,6.19,72374.0,-8.07,-18.65,-17.45,0,*53
1514880306.43,64367,6.19,72376.8,-8.07,-18.49,-17.41,0,*58
1514880307.69,64368,6.19,72374.3,-8.07,-18.49,-17.41,0,*57
1514880308.93,64369,6.19,72374.3,-8.05,-18.45,-17.25,0,*5A
1514880310.16,64370,6.13,72374.5,-8.05,-18.45,-17.17,0,*53
1514880311.42,64371,6.13,72374.8,-8.05,-18.35,-17.11,0,*53
1514880312.69,64372,6.19,72376.0,-8.05,-18.31,-17.17,0,*52
1514880313.94,64373,6.19,72378.5,-8.03,-18.45,-17.17,0,*56
1514880315.2,64374,6.13,72374.0,-8.05,-18.35,-17.25,0,*51
1514880316.46,64375,6.19,72376.3,-8.05,-18.35,-17.17,0,*51
1514880317.7,64376,6.19,72376.8,-8.05,-18.21,-17.11,0,*51
1514880318.96,64377,6.19,72376.0,-8.03,-18.21,-17.11,0,*56
1514880320.2,64378,6.19,72372.5,-8.05,-18.07,-17.07,0,*5C
1514880321.44,64379,6.19,72374.8,-8.05,-17.97,-16.97,0,*53
1514880322.67,64380,6.19,72378.5,-8.03,-17.87,-16.93,0,*56
1514880323.94,64381,6.19,72376.0,-8.03,-17.97,-16.97,0,*52
1514880325.17,64382,6.13,72374.8,-8.03,-17.83,-16.97,0,*54
1514880326.41,64383,6.13,72374.3,-8.03,-17.83,-16.93,0,*51
1514880327.64,64384,6.13,72370.8,-8.01,-17.63,-16.79,0,*5E
1514880328.87,64385,6.19,72374.0,-8.01,-17.63,-16.79,0,*5F
1514880330.09,64386,6.19,72374.5,-8.01,-17.49,-16.79,0,*54
1514880331.33,64387,6.19,72376.3,-8.01,-17.49,-16.65,0,*58
1514880332.54,64388,6.19,72374.0,-8.01,-17.49,-16.75,0,*56
1514880333.78,64389,6.19,72372.3,-8.01,-17.49,-16.65,0,*56
1514880335.0,64390,6.19,72374.5,-8.01,-17.49,-16.75,0,*5F
1514880336.26,64391,6.19,72374.0,-8.01,-17.41,-16.65,0,*57
1514880337.5,64392,6.19,72372.0,-8.01,-17.35,-16.65,0,*57
1514880338.78,64393,6.13,72374.3,-7.99,-17.41,-16.75,0,*5A
1514880340.02,64394,6.19,72378.0,-7.99,-17.49,-16.75,0,*55
1514880341.27,64395,6.19,72376.0,-7.99,-17.49,-16.75,0,*54
1514880342.56,64396,6.19,72374.5,-7.99,-17.41,-16.65,0,*5E
1514880343.85,64397,6.19,72374.8,-7.99,-17.41,-16.65,0,*5F
1514880345.12,64398,6.19,72374.8,-7.99,-17.55,-16.79,0,*58
1514880346.38,64399,6.19,72376.3,-7.99,-17.49,-16.65,0,*59
1514880347.63,64400,6.19,72376.0,-7.99,-17.35,-16.59,0,*5A
1514880348.85,64401,6.19,72374.0,-7.97,-17.35,-16.55,0,*59
1514880350.12,64402,6.19,72376.0,-7.99,-17.41,-16.59,0,*5B
1514880351.32,64403,6.19,72376.0,-7.97,-17.31,-16.55,0,*5F
1514880352.56,64404,6.19,72372.3,-7.97,-17.21,-16.41,0,*5C
1514880353.8,64405,6.19,72378.5,-7.97,-17.17,-16.41,0,*58
1514880355.04,64406,6.13,72374.8,-7.97,-17.21,-16.41,0,*5E
1514880356.27,64407,6.19,72374.3,-7.97,-17.21,-16.45,0,*5B
1514880357.53,64408,6.19,72374.8,-7.97,-17.17,-16.31,0,*52
1514880358.79,64409,6.19,72376.8,-7.97,-17.07,-16.31,0,*52
1514880360.05,64410,6.19,72372.5,-7.97,-17.07,-16.31,0,*5A
1514880361.31,64411,6.13,72370.3,-7.97,-17.07,-16.31,0,*5B
1514880362.55,64412,6.19,72374.0,-7.97,-16.89,-16.17,0,*5B
1514880363.79,64413,6.13,72372.5,-7.97,-16.83,-16.27,0,*53
1514880365.02,64414,6.19,72374.3,-7.97,-16.75,-16.13,0,*5A
1514880366.28,64415,6.19,72374.5,-7.95,-16.69,-16.03,0,*55
1514880367.54,64416,6.19,72372.8,-7.95,-16.69,-16.03,0,*56
1514880368.8,64417,6.13,72374.3,-7.95,-16.79,-16.09,0,*5C
1514880370.04,64418,6.19,72372.8,-7.95,-16.55,-16.03,0,*57
1514880371.25,64419,6.13,72374.8,-7.93,-16.55,-16.03,0,*50
1514880372.46,64420,6.19,72374.3,-7.93,-16.55,-16.03,0,*5A
1514880373.7,64421,6.19,72376.5,-7.93,-16.55,-16.09,0,*51
1514880374.93,64422,6.19,72372.0,-7.93,-16.55,-16.13,0,*59
1514880376.19,64423,6.19,72372.8,-7.93,-16.51,-16.23,0,*5F
1514880377.42,64424,6.19,72378.3,-7.93,-16.41,-16.13,0,*5A
1514880378.66,64425,6.19,72372.5,-7.93,-16.41,-16.13,0,*5B
1514880379.89,64426,6.19,72374.8,-7.93,-16.41,-16.23,0,*5B
1514880381.13,64427,6.13,72372.0,-7.93,-16.41,-16.23,0,*5A
1514880382.36,64428,6.19,72376.0,-7.93,-16.41,-16.27,0,*51
1514880383.62,64429,6.19,72378.0,-7.91,-16.37,-16.23,0,*57
1514880384.85,64430,6.19,72374.5,-7.93,-16.45,-16.31,0,*5B
1514880386.06,64431,6.13,72370.3,-7.93,-16.41,-16.37,0,*58
1514880387.29,64432,6.19,72376.3,-7.91,-16.37,-16.37,0,*58
1514880388.55,64433,6.19,72374.0,-7.91,-16.37,-16.31,0,*5F
1514880389.81,64434,6.13,72374.5,-7.91,-16.37,-16.31,0,*58
1514880391.02,64435,6.19,72374.3,-7.93,-16.37,-16.37,0,*5D
1514880392.25,64436,6.19,72374.8,-7.91,-16.45,-16.45,0,*5C
1514880393.45,64437,6.19,72376.0,-7.89,-16.37,-16.45,0,*51
1514880394.66,64438,6.19,72374.3,-7.89,-16.45,-16.45,0,*5B
1514880395.86,64439,6.19,72376.8,-7.89,-16.45,-16.45,0,*5A
1514880397.06,64440,6.19,72374.3,-7.89,-16.45,-16.45,0,*54
1514880398.34,64441,6.13,72372.8,-7.85,-16.31,-16.31,0,*59
1514880399.6,64442,6.19,72374.8,-7.85,-16.31,-16.41,0,*5D
1514880400.81,64443,6.19,72372.0,-7.89,-16.37,-16.45,0,*52
1514880402.01,64444,6.19,72374.8,-7.89,-16.37,-16.37,0,*50
1514880403.27,64445,6.19,72374.8,-7.85,-16.31,-16.45,0,*5E
1514880404.5,64446,6.19,72374.5,-7.89,-16.31,-16.59,0,*5C
1514880405.74,64447,6.19,72376.3,-7.85,-16.41,-16.45,0,*5B
1514880406.95,64448,6.19,72372.5,-7.89,-16.37,-16.59,0,*54
1514880408.17,64449,6.19,72376.5,-7.89,-16.37,-16.59,0,*55
1514880409.4,64450,6.19,72374.5,-7.89,-16.45,-16.65,0,*57
1514880410.65,64451,6.19,72374.0,-7.85,-16.41,-16.75,0,*5F
1514880411.88,64452,6.19,72376.5,-7.85,-16.45,-16.83,0,*51
1514880413.1,64453,6.19,72372.8,-7.89,-16.59,-16.79,0,*54
1514880414.34,64454,6.13,72374.0,-7.85,-16.45,-16.75,0,*5E
1514880415.57,64455,6.19,72378.8,-7.89,-16.51,-16.89,0,*55
1514880416.81,64456,6.19,72374.3,-7.85,-16.55,-16.83,0,*54
1514880418.08,64457,6.19,72376.0,-7.85,-16.59,-17.03,0,*50
1514880419.37,64458,6.19,72372.8,-7.85,-16.69,-17.07,0,*58
1514880420.64,64459,6.19,72376.3,-7.85,-16.59,-17.07,0,*5A
1514880421.92,64460,6.19,72372.3,-7.89,-16.65,-17.07,0,*53
1514880423.2,64461,6.19,72378.8,-7.85,-16.69,-17.17,0,*53
1514880424.49,64462,6.19,72372.0,-7.85,-16.69,-17.17,0,*50
1514880425.75,64463,6.19,72372.0,-7.85,-16.75,-17.21,0,*59
1514880427.0,64464,6.19,72374.0,-7.83,-16.75,-17.21,0,*58
1514880428.26,64465,6.19,72376.8,-7.85,-16.75,-17.21,0,*5F
1514880429.52,64466,6.19,72376.5,-7.85,-16.93,-17.21,0,*54
1514880430.77,64467,6.19,72376.0,-7.83,-17.03,-17.35,0,*5E
1514880432.01,64468,6.19,72372.8,-7.83,-17.07,-17.31,0,*51
1514880433.25,64469,6.19,72374.5,-7.83,-17.03,-17.31,0,*54
1514880434.51,64470,6.19,72372.8,-7.81,-16.97,-17.25,0,*57
1514880435.75,64471,6.19,72374.8,-7.83,-17.03,-17.31,0,*5D
1514880437.0,64472,6.19,72372.8,-7.85,-17.03,-17.31,0,*58
1514880438.27,64473,6.19,72374.3,-7.83,-17.03,-17.21,0,*5E
1514880439.53,64474,6.19,72378.8,-7.81,-16.97,-17.17,0,*52
1514880440.79,64475,6.19,72374.3,-7.81,-17.11,-17.31,0,*58
1514880442.03,64476,6.19,72374.3,-7.83,-17.21,-17.31,0,*5A
1514880443.28,64477,6.19,72376.0,-7.83,-17.35,-17.45,0,*5D
1514880444.57,64478,6.19,72372.3,-7.81,-17.41,-17.45,0,*53
1514880445.81,64479,6.19,72372.5,-7.83,-17.31,-17.45,0,*57
1514880447.07,64480,6.19,72376.8,-7.81,-17.25,-17.31,0,*55
1514880448.32,64481,6.19,72378.8,-7.83,-17.25,-17.35,0,*52
1514880449.54,64482,6.19,72376.5,-7.83,-17.31,-17.35,0,*54
1514880450.8,64483,6.19,72374.0,-7.81,-17.17,-17.31,0,*57
1514880452.09,64484,6.19,72372.5,-7.81,-17.17,-17.25,0,*55
1514880453.33,64485,6.19,72374.0,-7.83,-17.21,-17.31,0,*56
1514880454.62,64486,6.19,72372.3,-7.81,-17.17,-17.25,0,*57
1514880455.86,64487,6.19,72374.0,-7.83,-17.17,-17.31,0,*51
1514880457.15,64488,6.19,72374.5,-7.81,-17.17,-17.25,0,*59
1514880458.44,64489,6.19,72374.0,-7.81,-17.25,-17.25,0,*59
1514880459.73,64490,6.19,72374.8,-7.81,-17.17,-17.25,0,*50
1514880461.01,64491,6.19,72372.3,-7.81,-17.25,-17.25,0,*50
1514880462.27,64492,6.19,72376.3,-7.79,-17.25,-17.17,0,*55
1514880463.56,64493,6.19,72372.3,-7.81,-17.41,-17.17,0,*51
1514880464.82,64494,6.19,72376.0,-7.79,-17.25,-17.25,0,*52
1514880466.11,64495,6.19,72372.0,-7.77,-17.21,-17.11,0,*5E
1514880467.4,64496,6.19,72378.5,-7.77,-17.21,-17.11,0,*5D
1514880468.62,64497,6.19,72374.3,-7.79,-17.31,-17.17,0,*55
1514880469.89,64498,6.19,72374.3,-7.79,-17.41,-17.17,0,*5D
1514880471.15,64499,6.19,72372.3,-7.77,-17.35,-17.11,0,*57
1514880472.44,64500,6.19,72376.0,-7.77,-17.21,-17.07,0,*54
1514880473.71,64501,6.19,72378.3,-7.79,-17.21,-17.07,0,*5B
1514880475.01,64502,6.19,72376.5,-7.77,-17.21,-17.07,0,*56
1514880476.24,64503,6.19,72376.0,-7.79,-17.11,-16.97,0,*52
1514880477.5,64504,6.19,72378.5,-7.77,-17.25,-16.97,0,*5C
1514880478.76,64505,6.19,72374.8,-7.77,-17.21,-16.97,0,*59
1514880480.02,64506,6.19,72376.8,-7.77,-17.35,-17.11,0,*50
1514880481.26,64507,6.19,72376.8,-7.79,-17.25,-16.97,0,*51
1514880482.49,64508,6.19,72374.5,-7.75,-17.21,-16.83,0,*53
1514880483.73,64509,6.19,72378.0,-7.75,-17.07,-16.79,0,*53
1514880484.99,64510,6.19,72376.5,-7.77,-17.07,-16.79,0,*59
1514880486.26,64511,6.19,72374.8,-7.77,-17.07,-16.75,0,*54
1514880487.5,64512,6.19,72376.5,-7.75,-17.07,-16.79,0,*59
1514880488.76,64513,6.19,72376.3,-7.75,-17.25,-17.11,0,*57
1514880490.03,64514,6.19,72378.5,-7.75,-17.41,-17.11,0,*52
1514880491.32,64515,6.19,72376.3,-7.77,-17.41,-17.11,0,*51
1514880492.58,64516,6.19,72374.8,-7.79,-17.45,-17.11,0,*58
1514880493.84,64517,6.19,72376.5,-7.77,-17.11,-16.97,0,*59
1514880495.1,64518,6.19,72374.5,-7.77,-17.07,-16.79,0,*51
1514880496.34,64519,6.19,72374.3,-7.75,-17.11,-16.83,0,*50
1514880497.58,64520,6.19,72372.8,-7.75,-17.07,-16.75,0,*54
1514880498.82,64521,6.19,72372.8,-7.75,-17.07,-16.75,0,*55
1514880500.06,64522,6.19,72376.3,-7.75,-17.11,-16.75,0,*51
1514880501.32,64523,6.19,72376.3,-7.75,-17.07,-16.65,0,*56
1514880502.56,64524,6.19,72372.0,-7.75,-16.97,-16.65,0,*59
1514880503.77,64525,6.19,72372.0,-7.75,-16.93,-16.59,0,*53
1514880504.98,64526,6.19,72376.8,-7.75,-16.97,-16.59,0,*54
1514880506.2,64527,6.19,72378.0,-7.75,-16.97,-16.59,0,*55
1514880507.43,64528,6.19,72372.8,-7.75,-16.93,-16.51,0,*56
1514880508.63,64529,6.19,72374.5,-7.75,-16.93,-16.45,0,*52